| time (UTC) | temp F | wind direction | speed MPH | gust MPH | rain 1hr in | rain 24hr in | rain mn in | humidity % | barometer mb |
| 20260903143500 | 41 | 0 | 0.0 | 0.0 | 0.00 | 0.00 | 0.00 | 92 | 1017.4 |
| 20260903141957 | 40 | 0 | 0.0 | 0.0 | 0.00 | 0.00 | 0.00 | 93 | 1017.5 |
| 20260903140452 | 39 | 0 | 0.0 | 0.0 | 0.00 | 0.00 | 0.00 | 92 | 1017.5 |
| 20260903134949 | 39 | 0 | 0.0 | 0.0 | 0.00 | 0.00 | 0.00 | 91 | 1017.3 |
| 20260903131939 | 39 | 0 | 0.0 | 0.0 | 0.00 | 0.00 | 0.00 | 92 | 1017.4 |
| 20260903130435 | 39 | 0 | 0.0 | 0.0 | 0.00 | 0.00 | 0.00 | 91 | 1017.2 |
| 20260903123427 | 39 | 0 | 0.0 | 0.0 | 0.00 | 0.00 | 0.00 | 90 | 1017.0 |
| 20260903121923 | 40 | 0 | 0.0 | 0.0 | 0.00 | 0.00 | 0.00 | 92 | 1017.1 |
| 20260903120418 | 38 | 0 | 0.0 | 0.0 | 0.00 | 0.00 | 0.00 | 91 | 1017.0 |
| 20260903114916 | 39 | 0 | 0.0 | 1.0 | 0.00 | 0.00 | 0.00 | 91 | 1017.0 |
| 20260903113411 | 39 | 0 | 0.0 | 0.0 | 0.00 | 0.00 | 0.00 | 91 | 1016.9 |
| 20260903111907 | 39 | 0 | 0.0 | 0.0 | 0.00 | 0.00 | 0.00 | 90 | 1016.9 |
| 20260903110402 | 41 | 0 | 0.0 | 0.0 | 0.00 | 0.00 | 0.00 | 91 | 1016.7 |
| 20260903104859 | 40 | 0 | 0.0 | 4.0 | 0.00 | 0.00 | 0.00 | 92 | 1016.6 |
| 20260903103355 | 39 | 0 | 0.0 | 0.0 | 0.00 | 0.00 | 0.00 | 91 | 1016.6 |
| 20260903101851 | 39 | 0 | 0.0 | 0.0 | 0.00 | 0.00 | 0.00 | 90 | 1016.5 |
| 20260903100347 | 39 | 0 | 0.0 | 0.0 | 0.00 | 0.00 | 0.00 | 90 | 1016.5 |
| 20260903094842 | 38 | 0 | 0.0 | 0.0 | 0.00 | 0.00 | 0.00 | 88 | 1016.4 |
| 20260903093339 | 39 | 0 | 0.0 | 0.0 | 0.00 | 0.00 | 0.00 | 89 | 1016.2 |
| 20260903091835 | 39 | 0 | 0.0 | 0.0 | 0.00 | 0.00 | 0.00 | 89 | 1016.4 |
| 20260903090333 | 39 | 0 | 0.0 | 0.0 | 0.00 | 0.00 | 0.00 | 88 | 1016.4 |
| 20260903084826 | 40 | 0 | 0.0 | 0.0 | 0.00 | 0.00 | 0.00 | 89 | 1016.4 |
| 20260903083322 | 40 | 0 | 0.0 | 0.0 | 0.00 | 0.00 | 0.00 | 89 | 1016.1 |
| 20260903081818 | 40 | 0 | 0.0 | 0.0 | 0.00 | 0.00 | 0.00 | 87 | 1015.9 |
| 20260903080315 | 41 | 0 | 0.0 | 0.0 | 0.00 | 0.00 | 0.00 | 88 | 1015.8 |
| 20260903074811 | 42 | 0 | 0.0 | 0.0 | 0.00 | 0.00 | 0.00 | 88 | 1015.6 |
| 20260903073307 | 42 | 0 | 0.0 | 0.0 | 0.00 | 0.00 | 0.00 | 87 | 1015.6 |
| 20260903071803 | 42 | 0 | 0.0 | 0.0 | 0.00 | 0.00 | 0.00 | 86 | 1015.4 |
| 20260903070259 | 43 | 0 | 0.0 | 0.0 | 0.00 | 0.00 | 0.00 | 86 | 1015.0 |
| 20260903064755 | 43 | 0 | 0.0 | 0.0 | 0.00 | 0.00 | 0.00 | 86 | 1015.1 |
| 20260903063248 | 44 | 0 | 0.0 | 0.0 | 0.00 | 0.00 | 0.00 | 84 | 1015.0 |
| 20260903061745 | 44 | 0 | 0.0 | 0.0 | 0.00 | 0.00 | 0.00 | 84 | 1014.8 |
| 20260903060240 | 45 | 0 | 0.0 | 0.0 | 0.00 | 0.00 | 0.00 | 83 | 1014.5 |
| 20260903053232 | 47 | 0 | 0.0 | 0.0 | 0.00 | 0.00 | 0.00 | 80 | 1014.1 |
| 20260903051729 | 48 | 0 | 0.0 | 0.0 | 0.00 | 0.00 | 0.00 | 80 | 1014.0 |
| 20260903050225 | 49 | 0 | 0.0 | 0.0 | 0.00 | 0.00 | 0.00 | 77 | 1013.7 |
| 20260903044720 | 50 | 0 | 0.0 | 0.0 | 0.00 | 0.00 | 0.00 | 76 | 1013.7 |
| 20260903043217 | 51 | 0 | 0.0 | 0.0 | 0.00 | 0.00 | 0.00 | 73 | 1013.5 |
| 20260903041713 | 52 | 0 | 0.0 | 0.0 | 0.00 | 0.00 | 0.00 | 70 | 1013.3 |
| 20260903040209 | 53 | 0 | 0.0 | 0.0 | 0.00 | 0.00 | 0.00 | 65 | 1013.3 |
| 20260903034704 | 55 | 0 | 0.0 | 0.0 | 0.00 | 0.00 | 0.00 | 60 | 1013.2 |
| 20260903033200 | 56 | 0 | 0.0 | 0.0 | 0.00 | 0.00 | 0.00 | 58 | 1013.0 |
| 20260903031657 | 58 | 0 | 0.0 | 1.0 | 0.00 | 0.00 | 0.00 | 54 | 1012.8 |
| 20260903030152 | 59 | 0 | 0.0 | 5.0 | 0.00 | 0.00 | 0.00 | 46 | 1012.6 |
| 20260903024649 | 60 | 0 | 0.0 | 4.0 | 0.00 | 0.00 | 0.00 | 48 | 1012.6 |
| 20260903023145 | 60 | 286 | 2.0 | 9.0 | 0.00 | 0.00 | 0.00 | 44 | 1012.7 |
| 20260903021639 | 60 | 0 | 0.0 | 9.0 | 0.00 | 0.00 | 0.00 | 45 | 1012.5 |
| 20260903020135 | 60 | 0 | 0.0 | 6.0 | 0.00 | 0.00 | 0.00 | 43 | 1012.4 |
| 20260903014630 | 60 | 317 | 1.0 | 8.0 | 0.00 | 0.00 | 0.00 | 44 | 1012.3 |
| 20260903013127 | 60 | 282 | 1.0 | 5.0 | 0.00 | 0.00 | 0.00 | 49 | 1012.3 |
| 20260903011622 | 59 | 287 | 4.0 | 11.0 | 0.00 | 0.00 | 0.00 | 44 | 1012.2 |
| 20260903010120 | 59 | 287 | 2.0 | 7.0 | 0.00 | 0.00 | 0.00 | 46 | 1012.2 |
| 20260903004612 | 59 | 300 | 3.0 | 7.0 | 0.00 | 0.00 | 0.00 | 43 | 1012.2 |
| 20260903003109 | 59 | 302 | 5.0 | 11.0 | 0.00 | 0.00 | 0.00 | 44 | 1012.0 |
| 20260903001605 | 59 | 0 | 0.0 | 11.0 | 0.00 | 0.00 | 0.00 | 44 | 1011.9 |
| 20260903000100 | 59 | 321 | 3.0 | 10.0 | 0.00 | 0.00 | 0.00 | 43 | 1011.8 |
| 20260902234557 | 58 | 333 | 3.0 | 7.0 | 0.00 | 0.00 | 0.00 | 43 | 1011.6 |
| 20260902233052 | 58 | 299 | 5.0 | 14.0 | 0.00 | 0.00 | 0.00 | 45 | 1011.5 |
| 20260902231547 | 58 | 0 | 0.0 | 9.0 | 0.00 | 0.00 | 0.00 | 44 | 1011.4 |
| 20260902230041 | 58 | 308 | 5.0 | 11.0 | 0.00 | 0.00 | 0.00 | 45 | 1011.3 |
| 20260902224537 | 57 | 315 | 2.0 | 13.0 | 0.00 | 0.00 | 0.00 | 45 | 1010.8 |
| 20260902223031 | 57 | 301 | 8.0 | 16.0 | 0.00 | 0.00 | 0.00 | 44 | 1010.8 |
| 20260902220020 | 57 | 296 | 9.0 | 16.0 | 0.00 | 0.00 | 0.00 | 45 | 1010.3 |
| 20260902214515 | 56 | 290 | 7.0 | 13.0 | 0.00 | 0.00 | 0.00 | 44 | 1010.2 |
| 20260902213010 | 56 | 304 | 2.0 | 15.0 | 0.00 | 0.00 | 0.00 | 47 | 1010.1 |
| 20260902211507 | 56 | 296 | 7.0 | 14.0 | 0.00 | 0.00 | 0.00 | 49 | 1010.0 |
| 20260902210002 | 56 | 303 | 6.0 | 13.0 | 0.00 | 0.00 | 0.00 | 50 | 1009.9 |
| 20260902202953 | 54 | 294 | 3.0 | 10.0 | 0.00 | 0.00 | 0.00 | 51 | 1009.8 |
| 20260902201449 | 54 | 289 | 1.0 | 11.0 | 0.00 | 0.00 | 0.00 | 54 | 1009.8 |
| 20260902194437 | 52 | 0 | 0.0 | 7.0 | 0.00 | 0.00 | 0.00 | 61 | 1009.6 |
| 20260902192933 | 50 | 315 | 1.0 | 7.0 | 0.00 | 0.00 | 0.00 | 64 | 1009.5 |
| 20260902191429 | 48 | 289 | 2.0 | 7.0 | 0.00 | 0.00 | 0.00 | 84 | 1009.4 |
| 20260902185925 | 47 | 0 | 0.0 | 3.0 | 0.00 | 0.00 | 0.00 | 90 | 1009.3 |
| 20260902184420 | 46 | 0 | 0.0 | 0.0 | 0.00 | 0.00 | 0.00 | 94 | 1009.2 |
| 20260902181413 | 41 | 0 | 0.0 | 0.0 | 0.00 | 0.00 | 0.00 | 95 | 1008.9 |
| 20260902175909 | 40 | 0 | 0.0 | 0.0 | 0.00 | 0.00 | 0.00 | 94 | 1008.9 |
| 20260902172859 | 37 | 0 | 0.0 | 0.0 | 0.00 | 0.00 | 0.00 | 94 | 1008.4 |
| 20260902171353 | 36 | 0 | 0.0 | 0.0 | 0.00 | 0.00 | 0.00 | 93 | 1008.4 |
| 20260902165851 | 35 | 0 | 0.0 | 0.0 | 0.00 | 0.00 | 0.00 | 93 | 1008.3 |
| 20260902164347 | 35 | 0 | 0.0 | 0.0 | 0.00 | 0.00 | 0.00 | 92 | 1007.9 |
| 20260902162843 | 35 | 0 | 0.0 | 0.0 | 0.00 | 0.00 | 0.00 | 93 | 1007.8 |
| 20260902155834 | 34 | 0 | 0.0 | 0.0 | 0.00 | 0.00 | 0.00 | 92 | 1007.3 |
| 20260902152826 | 35 | 0 | 0.0 | 0.0 | 0.00 | 0.00 | 0.00 | 92 | 1007.2 |
| 20260902151321 | 35 | 0 | 0.0 | 0.0 | 0.00 | 0.00 | 0.00 | 92 | 1007.1 |
| 20260902145817 | 35 | 0 | 0.0 | 0.0 | 0.00 | 0.00 | 0.00 | 92 | 1007.1 |
| 20260902144312 | 35 | 0 | 0.0 | 0.0 | 0.00 | 0.00 | 0.00 | 92 | 1007.0 |